Location: Aldenham
(51.6667°N, 0.3500°W)
Time: 14:06:48
(UTC+00:00)

Resurs 01 Rocket - Visible Passes

Search period start: 14 February 2026 00:00
Search period end: 24 February 2026 00:00
Orbit: 628 x 635 km, 97.7° (Epoch: 13 February)

Date Brightness Start Highest point End Pass type
(mag) Time Alt. Az. Time Alt. Az. Time Alt. Az.
14 Feb 5.3 06:25:50 10° ENE 06:26:47 11° E 06:27:45 10° E visible
14 Feb 1.9 19:00:41 10° S 19:05:03 71° WSW 19:09:30 10° NNW visible
15 Feb 2.6 17:46:04 10° ESE 17:49:42 26° ENE 17:53:22 10° N visible
15 Feb 2.7 19:21:40 10° S 19:25:52 45° W 19:30:08 10° NNW visible
16 Feb 2.1 18:06:14 10° SE 18:10:18 38° ENE 18:14:23 10° N visible
16 Feb 3.6 19:42:53 10° SSW 19:46:44 29° W 19:50:37 10° NNW visible
17 Feb 1.6 18:26:38 10° SSE 18:30:56 58° ENE 18:35:17 10° N visible
17 Feb 4.2 20:04:28 10° SW 20:07:40 19° W 20:10:54 10° NW visible
18 Feb 1.6 18:47:14 10° SSE 18:51:39 88° ENE 18:56:06 10° NNW visible
18 Feb 4.7 20:26:41 10° WSW 20:28:40 13° W 20:30:40 10° WNW visible
19 Feb 5.0 06:32:18 10° ENE 06:34:14 13° E 06:36:11 10° ESE visible
19 Feb 2.2 19:08:04 10° S 19:12:24 59° W 19:16:48 10° NNW visible
20 Feb 2.4 17:53:09 10° SE 17:56:58 30° ENE 18:00:48 10° N visible
20 Feb 3.1 19:29:08 10° SSW 19:33:14 38° W 19:37:23 10° NNW visible
21 Feb 1.9 18:13:23 10° SE 18:17:34 44° ENE 18:21:47 10° N visible
21 Feb 3.9 19:50:28 10° SSW 19:54:07 25° W 19:57:48 10° NW visible
22 Feb 1.6 18:33:52 10° SSE 18:38:14 68° ENE 18:42:38 10° N visible
22 Feb 4.5 20:12:13 10° SW 20:15:04 17° W 20:17:56 10° NW visible
23 Feb 1.7 18:54:33 10° S 18:58:57 79° WSW 19:03:24 10° NNW visible
23 Feb 4.9 20:35:01 10° W 20:36:05 11° W 20:37:09 10° WNW visible
